DW4184 Weather Reports


time (UTC)temp
C
wind
direction
speed
KPH
gust
KPH
rain 1hr
cm
rain 24hr
cm
rain mn
cm
humidity
%
barometer
mb
20260509090149 10 320 0.0 0.0 0.00 0.00 0.00 97 1010.1
20260509085116 10 320 0.0 0.0 0.00 0.00 0.00 97 1009.9
20260509084116 10 320 0.0 0.0 0.00 0.00 0.00 97 1009.9
20260509082018 10 320 0.0 0.0 0.00 0.00 0.00 97 1009.9
20260509081002 10 327 0.0 0.0 0.00 0.00 0.00 98 1009.9
20260509080011 10 309 0.0 0.0 0.00 0.00 0.00 97 1009.7
20260509075024 10 309 0.0 0.0 0.00 0.00 0.00 97 1009.6
20260509074031 10 351 0.0 0.0 0.00 0.00 0.00 97 1009.3
20260509073022 10 351 0.0 0.0 0.00 0.00 0.00 97 1009.5
20260509071949 10 351 0.0 0.0 0.00 0.00 0.00 97 1009.8
20260509070915 10 351 0.0 0.0 0.00 0.00 0.00 97 1010.0
20260509065917 10 351 0.0 0.0 0.00 0.00 0.00 97 1010.0
20260509064909 10 351 0.0 0.0 0.00 0.00 0.00 97 1010.4
20260509063910 10 351 0.0 0.0 0.00 0.00 0.00 97 1010.5
20260509060614 10 351 0.0 0.0 0.00 0.00 0.00 97 1011.2
20260509055609 10 351 0.0 0.0 0.00 0.00 0.00 97 1011.0
20260509054611 10 351 0.0 0.0 0.00 0.00 0.00 97 1011.2
20260509053613 11 351 0.0 0.0 0.00 0.00 0.00 97 1011.2
20260509052616 11 351 0.0 0.0 0.00 0.00 0.00 97 1011.3
20260509045354 11 351 0.0 0.0 0.00 0.00 0.00 96 1011.2
20260509043235 11 351 0.0 0.0 0.00 0.00 0.00 96 1011.7
20260509042233 11 351 0.0 0.0 0.00 0.00 0.00 96 1011.8
20260509041226 11 351 0.0 0.0 0.00 0.00 0.00 96 1011.9
20260509035109 12 351 0.0 0.0 0.00 0.00 0.00 96 1012.1
20260509034112 12 351 0.0 0.0 0.00 0.00 0.00 96 1012.2
20260509033051 12 351 0.0 0.0 0.00 0.00 0.00 96 1012.1
20260509030934 12 344 0.0 0.0 0.00 0.00 0.00 96 1012.6
20260509025954 12 9 0.0 0.0 0.00 0.00 0.00 96 1012.6
20260509023829 12 49 0.0 0.0 0.00 0.00 0.00 96 1012.5
20260509022847 12 49 0.0 0.0 0.00 0.00 0.00 96 1012.4
20260509021814 12 49 0.0 0.0 0.00 0.00 0.00 96 1012.3
20260509020821 12 49 0.0 0.0 0.00 0.00 0.00 96 1012.3
20260509013603 13 288 0.0 0.0 0.00 0.00 0.00 95 1012.2
20260509011406 13 94 0.0 0.0 0.00 0.00 0.00 95 1012.3
20260509010408 13 94 0.0 0.0 0.00 0.00 0.00 95 1012.2
20260509005418 13 94 0.0 0.0 0.00 0.00 0.00 94 1012.5
20260509004442 13 95 0.0 0.0 0.00 0.00 0.00 94 1012.4
20260509003428 14 96 0.0 0.0 0.00 0.00 0.00 94 1012.4
20260509002423 14 96 0.0 0.0 0.00 0.00 0.00 93 1012.4
20260509001416 14 104 0.0 0.0 0.00 0.00 0.00 92 1012.4
20260509000428 15 124 0.0 0.0 0.00 0.00 0.00 91 1012.2
20260508235411 15 103 0.0 0.0 0.00 0.00 0.00 91 1012.1
20260508234404 15 102 0.0 0.0 0.00 0.00 0.00 90 1012.1
20260508233409 15 94 0.0 0.0 0.00 0.00 0.00 90 1012.1
20260508232423 16 94 0.0 0.0 0.00 0.00 0.00 89 1012.0
20260508231435 16 94 0.0 0.0 0.00 0.00 0.00 89 1011.9
20260508230403 16 94 0.0 0.0 0.00 0.00 0.00 88 1012.0
20260508225410 16 94 0.0 0.0 0.00 0.00 0.00 86 1012.1
20260508224341 17 105 0.0 0.0 0.00 0.00 0.00 83 1012.1
20260508223400 17 105 0.0 0.0 0.00 0.00 0.00 83 1011.9
20260508221239 17 138 0.0 0.0 0.00 0.00 0.00 82 1011.8
20260508220222 17 138 0.0 0.0 0.00 0.00 0.00 79 1011.8
20260508215218 17 138 0.0 0.0 0.00 0.00 0.00 79 1011.9
20260508214232 17 63 0.0 0.0 0.00 0.00 0.00 71 1011.8
20260508213219 18 36 0.0 0.0 0.00 0.00 0.00 67 1011.7
20260508212226 18 65 0.0 1.6 0.00 0.00 0.00 71 1011.7
20260508211207 18 334 0.0 4.8 0.00 0.00 0.00 65 1011.9
20260508210200 18 38 0.0 8.0 0.00 0.00 0.00 60 1012.0
20260508205216 19 284 1.6 8.0 0.00 0.00 0.00 61 1011.8
20260508201952 19 78 0.0 4.8 0.00 0.00 0.00 60 1012.0
20260508200958 18 71 0.0 4.8 0.00 0.00 0.00 62 1012.0
20260508194842 19 305 1.6 12.9 0.00 0.00 0.00 59 1012.5
20260508193833 19 111 3.2 12.9 0.00 0.00 0.00 57 1012.5
20260508192809 20 303 1.6 8.0 0.00 0.00 0.00 59 1012.4
20260508191827 20 264 1.6 4.8 0.00 0.00 0.00 56 1012.5
20260508190836 20 107 1.6 8.0 0.00 0.00 0.00 59 1012.7
20260508185830 20 206 1.6 8.0 0.00 0.00 0.00 55 1013.0
20260508184851 20 212 1.6 8.0 0.00 0.00 0.00 58 1013.1
20260508183826 20 232 1.6 8.0 0.00 0.00 0.00 57 1013.3
20260508182841 20 40 1.6 12.9 0.00 0.00 0.00 57 1013.2
20260508181817 20 75 1.6 12.9 0.00 0.00 0.00 59 1013.5
20260508180818 19 26 1.6 12.9 0.00 0.00 0.00 60 1013.5
20260508175751 19 177 1.6 12.9 0.00 0.00 0.00 62 1013.8
20260508174718 19 32 1.6 9.7 0.00 0.00 0.00 63 1013.7
20260508173653 18 37 1.6 12.9 0.00 0.00 0.00 60 1014.1
20260508172657 18 303 3.2 12.9 0.00 0.00 0.00 61 1014.1
20260508171657 18 229 1.6 12.9 0.00 0.00 0.00 61 1014.1
20260508165546 18 263 1.6 8.0 0.00 0.00 0.00 62 1014.5
20260508164516 18 316 1.6 6.4 0.00 0.00 0.00 67 1014.7
20260508163442 17 255 0.0 3.2 0.00 0.00 0.00 64 1014.9
20260508162444 18 277 1.6 9.7 0.00 0.00 0.00 63 1014.9
20260508161431 17 320 0.0 8.0 0.00 0.00 0.00 63 1015.1
20260508160413 17 28 1.6 8.0 0.00 0.00 0.00 66 1015.3
20260508155429 17 54 0.0 4.8 0.00 0.00 0.00 68 1015.3
20260508154453 16 29 0.0 8.0 0.00 0.00 0.00 73 1015.5
20260508153455 16 86 1.6 8.0 0.00 0.00 0.00 70 1015.4
20260508152447 16 42 1.6 6.4 0.00 0.00 0.00 69 1015.8
20260508151426 16 90 0.0 9.7 0.00 0.00 0.00 68 1015.9
20260508150405 16 47 1.6 9.7 0.00 0.00 0.00 72 1015.8
20260508145356 15 322 1.6 8.0 0.00 0.00 0.00 75 1015.8
20260508144407 15 30 1.6 6.4 0.00 0.00 0.00 75 1015.9
20260508143416 15 327 0.0 3.2 0.00 0.00 0.00 76 1016.0
20260508142415 14 350 0.0 1.6 0.00 0.00 0.00 81 1015.9
20260508141420 13 292 0.0 4.8 0.00 0.00 0.00 80 1016.1
20260508140358 13 300 0.0 0.0 0.00 0.00 0.00 85 1016.0
20260508135413 12 105 0.0 0.0 0.00 0.00 0.00 98 1016.0
20260508134343 11 166 0.0 0.0 0.00 0.00 0.00 98 1016.3
20260508131122 10 201 0.0 0.0 0.00 0.00 0.00 98 1016.5
20260508130122 9 312 0.0 0.0 0.00 0.00 0.00 98 1016.5
20260508125117 9 312 0.0 0.0 0.00 0.00 0.00 98 1016.3
20260508124138 8 312 0.0 0.0 0.00 0.00 0.00 98 1016.2
20260508123143 8 312 0.0 0.0 0.00 0.00 0.00 98 1016.0
20260508120956 8 312 0.0 0.0 0.00 0.00 0.00 98 1015.8
20260508115934 8 312 0.0 0.0 0.00 0.00 0.00 98 1015.5
20260508114913 8 312 0.0 0.0 0.00 0.00 0.00 98 1015.3
20260508113926 7 312 0.0 0.0 0.00 0.00 0.00 97 1015.2
20260508112904 7 312 0.0 0.0 0.00 0.00 0.00 98 1015.2
20260508111923 7 312 0.0 0.0 0.00 0.00 0.00 97 1014.9
20260508110937 7 312 0.0 1.6 0.00 0.00 0.00 97 1014.7
20260508105956 7 312 0.0 0.0 0.00 0.00 0.00 97 1014.3
20260508105003 7 312 0.0 0.0 0.00 0.00 0.00 97 1014.1
20260508103929 7 312 0.0 0.0 0.00 0.00 0.00 97 1014.0
20260508102921 7 312 0.0 0.0 0.00 0.00 0.00 97 1013.9
20260508101908 7 312 0.0 0.0 0.00 0.00 0.00 97 1013.7
20260508100920 7 312 0.0 0.0 0.00 0.00 0.00 97 1013.6
20260508095928 7 312 0.0 0.0 0.00 0.00 0.00 97 1013.6
20260508094939 7 312 0.0 1.6 0.00 0.00 0.00 97 1013.3
20260508093931 7 312 0.0 0.0 0.00 0.00 0.00 97 1013.3
20260508092910 7 286 0.0 3.2 0.00 0.00 0.00 97 1013.2
20260508091912 7 340 0.0 0.0 0.00 0.00 0.00 97 1013.1
20260508090910 7 340 0.0 0.0 0.00 0.00 0.00 97 1012.9